Regional Weather Roundup
Issued by NWS

Home | Current Version | Previous Version | Graphics & Text | Print | Product List | Glossary On
Versions: 1 2 3 4 5 6 7 8 9 10 11 12 13 14 15 16 17 18 19 20 21 22 23 24 25 26 27 28 29 30 31 32 33 34 35 36 37 38 39 40 41 42 43 44 45 46 47 48 49 50
568
ASUS43 KIND 271459
RWRIN

WEATHER ROUNDUP FOR INDIANA
NATIONAL WEATHER SERVICE INDIANAPOLIS IN
1000 AM EST MON FEB 27 2017

NOTE: "FAIR" INDICATES FEW OR NO CLOUDS BELOW 12,000 FEET WITH NO
SIGNIFICANT WEATHER AND/OR OBSTRUCTIONS TO VISIBILITY.

* - STATION DOES NOT REPORT WEATHER SUCH AS PRECIPITATION OR FOG.

+ - STATION NOT QUALITY CONTROLLED BY THE NATIONAL WEATHER SERVICE.
    USE DATA WITH CAUTION...ESPECIALLY DEWPOINT AND RELATIVE
    HUMIDITY OBSERVATIONS.

INZ001>003-010>013-019-020-271600-
NORTHWEST INDIANA

CITY           SKY/WX    TMP DP  RH WIND       PRES   REMARKS
GARY /AIRPORT/ SUNNY     39  28  65 CALM      30.18R

$$

LMZ046-743>745-271600-
SOUTHERN LAKE MICHIGAN

STATION/POSITION TIME  TEMP    WIND        PRES    WAVE
                       AIR SEA DIR/SP/G            HT
                 (UTC) (F)     (DEG/KT/KT) (MB)    (FT)
BURNS HARBOR     1440   38     180/  5/  8 1022.4R
MICHIGAN CITY    1430   37     150/  4/  5   N/A

$$

INZ004-005-014>016-021>024-271600-
NORTH CENTRAL INDIANA

CITY           SKY/WX    TMP DP  RH WIND       PRES   REMARKS
GOSHEN         SUNNY     40  28  62 S13       30.20R
SOUTH BEND     SUNNY     38  30  73 SW3       30.20R

$$

INZ006>009-017-018-025>027-271600-
NORTHEAST INDIANA

CITY           SKY/WX    TMP DP  RH WIND       PRES   REMARKS
ANGOLA *+      SUNNY     39  28  65 SW5       30.20R
FORT WAYNE     LGT RAIN  39  32  76 SW6       30.23R
KENDALLVILLE + SUNNY     40  30  67 SW7       30.21R

$$

INZ028-029-035-036-043>045-051>053-271600-
WEST CENTRAL INDIANA

CITY           SKY/WX    TMP DP  RH WIND       PRES   REMARKS
LAFAYETTE      CLOUDY    42  38  85 SE5       30.20F
TERRE HAUTE    CLOUDY    46  35  65 SE8       30.19F

$$

INZ030>032-037>040-046>048-054>057-064-065-271600-
CENTRAL INDIANA

CITY           SKY/WX    TMP DP  RH WIND       PRES   REMARKS
ANDERSON       CLOUDY    41  28  60 SE6       30.23S
COLUMBUS       CLOUDY    45  37  76 SE6       30.23S
INDIANAPOLIS   PTSUNNY   44  29  55 S10       30.21S
-EAGLE CREEK   CLOUDY    45  28  51 VRB5      30.21S
KOKOMO +       CLOUDY    40  36  86 S3        30.23S
MT COMFORT *+  CLOUDY    43  28  56 S8        30.22S
SHELBYVILLE    CLOUDY    46  32  58 S6        30.22S

$$

INZ033-034-041-042-049-050-058-059-271600-
EAST CENTRAL INDIANA

CITY           SKY/WX    TMP DP  RH WIND       PRES   REMARKS
MUNCIE         CLOUDY    44  29  55 SE5       30.22F

$$

INZ060-061-067>069-081>083-085>088-271600-
SOUTHWEST INDIANA

CITY           SKY/WX    TMP DP  RH WIND       PRES   REMARKS
EVANSVILLE     CLOUDY    47  42  83 E5        30.20R
HUNTINGBURG *+ CLOUDY    46  43  87 SE9       30.21R

$$

INZ062-063-066-070>080-084-089>092-271600-
SOUTH CENTRAL AND SOUTHEAST INDIANA

CITY           SKY/WX    TMP DP  RH WIND       PRES   REMARKS
BLOOMINGTON    CLOUDY    43  35  73 CALM      30.21S
MADISON *+     CLOUDY    43  39  87 SE6       30.25S
SEYMOUR +      CLOUDY    46  39  76 SE6       30.22F

$$





USA.gov is the U.S. government's official web portal to all federal, state and local government web resources and services.